Temp
18 20 20 19 19 18 18 18 17 17 16 16 16 16 16 15 16 16 16 16 16 16 17 17 17 18 18 19 19 19 20 19 17 15 14 14 13 13 13 14 13 13 13
18 20 19 18 18 18 17 17 17 16 16 16 16 16 15 15 15 16 16 16 16 15 16 16 17 17 17 17 18 18 18 18 17 15 13 12 12 12 12 12 12 12 12
19 18 18 18 18 18 17 17 17 16 16 16 16 16 15 15 15 15 15 15 15 15 15 15 16 16 16 17 17 17 17 17 16 15 13 12 11 12 11 11 12 11 12
20 19 19 18 18 18 17 17 17 16 16 16 16 15 15 15 15 15 15 15 15 15 16 15 15 15 16 16 16 16 16 16 15 14 13 12 11 11 11 11 11 11 11
20 20 19 18 18 18 17 17 16 16 16 15 15 15 16 16 16 15 15 15 15 14 14 15 15 15 16 16 17 16 15 15 14 13 13 12 12 11 11 11 10 11 11
20 20 19 18 18 18 17 17 16 17 16 15 15 16 16 16 15 16 15 15 14 15 15 14 14 14 15 15 15 15 15 15 15 15 14 13 12 12 12 11 10 12 13
20 19 18 18 18 17 17 17 16 16 16 16 15 15 15 15 15 15 16 14 14 14 14 14 15 14 14 14 15 15 15 15 15 15 14 14 13 12 12 11 11 11 11
19 18 18 18 19 17 17 16 15 16 16 15 15 15 15 15 15 15 15 14 13 13 13 13 14 13 14 14 14 14 13 14 14 14 13 13 12 12 12 12 12 12 11
18 18 18 18 18 18 16 16 16 17 15 16 16 15 14 15 15 15 15 14 13 13 14 14 13 13 14 14 14 13 13 13 14 14 14 14 13 13 12 13 13 12 13
18 19 18 19 19 18 19 18 17 17 15 14 15 15 15 15 15 15 14 15 14 14 13 13 14 13 13 13 13 14 14 13 13 13 13 12 13 13 13 12 14 15 15
17 17 17 17 18 18 18 18 16 15 14 14 14 15 15 15 14 15 14 14 14 14 14 13 13 13 14 14 14 13 14 13 13 13 14 14 13 13 13 12 12 13 14
17 16 17 17 17 17 17 16 16 16 15 14 14 13 14 14 14 14 14 14 14 14 13 13 13 13 14 14 14 14 13 13 13 14 14 14 14 13 13 12 11 12 11
15 15 16 17 17 16 16 16 15 15 15 13 13 13 12 13 13 13 13 13 13 14 13 13 13 13 13 13 13 14 13 14 14 14 14 14 13 12 12 12 11 12 12
14 14 14 15 15 16 16 15 14 13 13 13 13 12 12 12 12 12 12 12 12 13 13 13 13 13 13 13 13 13 13 13 13 13 13 12 12 12 12 12 13 13 13
13 13 14 14 14 14 14 13 13 14 15 14 13 13 12 11 12 12 12 12 12 12 13 12 13 14 14 14 13 13 13 13 13 13 13 13 13 12 12 12 12 12 13
13 12 13 13 12 12 13 12 13 13 13 13 13 13 12 12 12 12 12 12 12 13 13 14 15 15 15 14 14 14 13 13 12 12 12 12 12 12 12 12 12 12 13
13 12 12 12 12 12 11 11 11 11 11 11 11 11 12 12 11 11 12 12 12 13 14 15 15 15 15 14 14 14 14 13 12 12 12 12 12 12 12 12 12 12 13
12 12 12 12 11 11 11 11 11 11 12 11 10 11 11 11 11 11 11 12 12 13 14 15 15 14 14 14 14 14 13 13 12 12 12 12 12 12 12 12 12 12 12
12 12 11 12 12 12 12 13 14 14 13 12 10 10 10 10 11 11 11 12 14 15 14 14 14 14 14 13 13 12 12 13 12 12 12 12 12 12 12 12 12 11 11
13 12 13 13 12 13 13 14 14 14 14 13 14 13 11 11 12 12 12 12 13 14 14 14 14 13 13 13 13 12 12 12 12 12 12 12 12 11 12 12 12 12 12
14 12 13 14 14 14 15 15 15 15 15 15 14 13 12 13 14 14 13 13 14 14 14 14 14 14 13 13 13 13 13 13 12 12 12 12 11 12 12 12 12 12 12
14 14 14 16 15 15 15 15 15 15 15 15 15 13 13 12 14 14 14 14 14 13 13 13 14 14 13 13 12 12 13 12 11 11 10 10 11 11 11 11 11 12 12
15 15 15 15 15 15 14 15 15 16 16 16 16 15 13 13 14 14 14 14 13 12 12 12 12 10 10 10 11 10 10 9 8 8 8 9 9 10 10 10 11 11 11
15 15 15 16 15 16 16 16 16 15 16 16 16 15 15 14 15 14 13 14 13 12 11 10 9 8 9 8 8 8 8 8 8 7 7 7 8 8 8 9 9 9 9
15 15 16 16 16 16 17 17 17 17 16 15 15 15 15 14 13 12 11 10 11 9 8 8 8 8 8 8 7 8 8 8 8 7 6 6 6 5 6 7 7 7 8
15 15 16 16 16 17 17 17 18 16 16 15 14 14 13 12 10 10 11 11 10 8 7 7 8 8 7 6 6 6 6 6 6 5 4 4 5 5 5 5 5 6 6
Height
808 811 814 817 817 818 817 816 818 820 822 821 819 818 819 822 819 816 816 813 812 810 809 809 809 809 808 810 812 814 815 817 821 825 827 830 832 833 833 835 836 835 836
809 812 815 818 820 819 818 817 819 822 824 822 821 822 823 824 821 820 819 816 815 814 812 812 812 812 811 812 813 814 816 817 819 824 828 830 832 834 834 834 836 837 837
806 815 820 822 822 822 820 819 821 824 826 826 826 825 826 825 822 823 822 820 819 817 816 815 815 815 815 815 815 816 817 818 819 821 827 831 834 836 837 837 837 839 839
812 815 819 822 823 823 822 820 822 825 827 829 829 829 829 826 826 826 825 823 823 822 821 819 819 819 819 819 818 818 819 820 822 825 828 832 835 838 838 839 840 840 841
809 815 817 821 823 824 826 825 824 826 827 829 830 831 831 831 831 829 829 827 825 825 826 825 824 823 822 822 823 823 823 823 825 828 831 834 836 838 839 840 841 842 843
801 808 812 815 820 823 824 826 825 824 827 831 832 833 834 835 833 832 831 831 830 829 829 829 828 828 827 826 826 826 826 827 828 830 833 836 838 839 840 841 842 843 844
806 809 811 813 814 821 824 825 828 823 826 831 835 835 835 836 836 835 834 834 834 833 832 832 832 832 832 832 832 831 831 831 832 833 835 837 839 840 841 842 843 844 844
808 810 812 813 812 816 822 825 826 822 825 831 834 836 836 836 837 837 837 836 836 836 836 836 835 835 835 836 836 836 836 836 837 837 839 840 841 841 842 843 844 844 844
806 806 810 813 813 812 819 822 821 820 826 830 832 834 836 837 838 839 839 838 838 837 838 838 839 838 839 839 839 840 841 842 842 842 842 843 843 843 843 844 845 845 845
803 804 805 809 811 812 815 818 820 822 826 830 832 834 836 837 838 840 840 840 839 840 840 840 840 840 841 841 841 842 843 845 846 847 847 846 845 845 845 844 844 843 842
803 805 807 808 809 812 815 817 819 823 826 828 830 832 835 836 838 840 841 841 841 841 842 843 842 843 843 843 843 843 844 846 847 848 849 849 849 848 848 847 845 845 843
800 805 807 808 811 812 812 813 816 817 823 826 828 832 834 835 837 839 840 842 843 842 843 844 845 845 845 845 844 844 845 846 848 849 849 850 849 849 849 848 847 846 846
801 802 804 805 806 808 809 811 814 814 818 824 827 831 834 836 837 839 841 843 844 844 845 846 846 847 847 848 847 847 848 848 849 849 849 850 850 850 848 848 847 845 845
800 800 801 802 802 803 804 807 810 813 818 821 825 829 831 834 836 838 840 842 843 845 846 848 848 849 849 849 850 850 850 850 850 850 850 850 850 849 848 847 846 845 844
798 799 798 799 802 803 804 807 809 812 816 820 825 828 830 832 834 836 839 841 843 845 846 849 850 850 850 850 851 851 851 851 851 851 851 850 849 848 847 848 846 845 843
798 799 799 800 803 806 806 808 812 814 819 822 825 828 830 831 833 836 839 841 843 846 848 848 849 850 849 850 851 851 851 851 851 851 850 850 849 848 847 846 846 844 843
799 798 799 802 804 807 810 810 813 818 820 823 826 828 830 831 834 837 839 842 844 845 846 847 849 849 850 851 851 852 851 852 851 851 850 849 849 848 847 846 845 844 842
798 798 799 803 805 808 811 813 816 819 822 827 828 829 831 832 834 836 839 841 844 845 846 847 848 849 850 850 850 851 851 851 851 850 849 849 848 848 847 845 844 843 842
799 801 801 802 805 808 811 813 816 819 822 825 828 830 830 832 835 836 838 841 842 843 844 846 847 848 848 848 849 850 849 850 850 849 849 848 848 847 845 844 842 842 841
800 800 801 802 805 807 809 813 818 820 822 824 826 829 831 832 835 836 838 840 842 843 844 845 846 845 846 846 847 847 848 848 848 848 847 846 846 845 844 842 840 839 837
799 801 802 804 805 808 812 815 818 819 821 824 826 828 830 831 833 835 837 839 840 842 842 842 842 842 842 843 844 845 845 845 846 846 845 844 843 842 841 839 838 836 834
799 802 804 807 810 812 814 815 817 820 822 823 825 827 828 830 833 834 836 837 838 839 840 840 840 840 841 840 840 842 842 842 841 842 842 841 840 839 838 836 834 832 830
801 803 805 808 810 812 814 816 817 818 820 821 823 825 826 829 831 832 834 834 835 835 835 835 836 836 836 836 836 837 839 839 839 838 839 839 838 836 835 833 830 828 825
799 801 802 805 808 810 811 813 814 815 817 818 819 821 823 824 826 828 829 829 829 830 831 831 832 833 832 834 834 834 835 835 836 836 835 836 835 833 831 829 827 824 822
795 797 799 802 804 806 809 810 811 812 814 814 815 817 818 819 821 823 824 826 825 827 828 828 829 830 831 832 832 832 832 833 833 832 833 832 831 830 828 826 825 823 820
791 793 796 799 801 803 806 807 808 809 810 811 813 814 815 815 816 817 819 821 823 825 826 827 828 829 829 830 830 830 830 830 830 829 830 830 829 828 826 825 823 821 818
Wind_Speed
14 15 14 13 11 9 11 13 12 10 9 10 12 12 12 9 8 11 12 14 15 14 12 10 8 4 3 2 1 2 4 5 7 4 8 10 8 8 10 11 11 12 11
13 15 13 11 10 11 12 14 12 11 10 11 11 12 10 9 11 13 13 13 14 15 17 15 13 9 8 7 4 2 0 2 6 8 11 7 11 10 12 13 13 12 13
13 12 11 11 9 11 12 12 12 11 11 12 12 12 12 12 15 14 14 15 15 16 16 17 17 14 13 10 8 6 5 4 4 10 10 10 12 11 12 12 11 10 11
11 12 11 9 7 8 10 12 12 10 10 10 11 12 12 14 15 15 15 16 16 17 18 18 17 16 13 12 11 11 9 9 8 12 14 12 9 8 8 10 10 8 9
12 12 11 9 8 8 7 9 11 9 9 9 9 9 10 11 11 12 13 14 15 16 16 16 18 17 15 14 11 10 9 10 10 11 10 9 8 7 4 4 7 6 6
16 14 14 14 11 9 8 8 10 10 8 6 6 6 7 8 11 12 12 13 14 14 14 15 15 16 18 18 17 15 12 10 10 9 7 6 5 3 4 4 7 2 1
7 11 15 15 15 11 9 9 7 11 9 6 5 5 8 7 7 8 11 11 13 14 15 14 15 14 14 13 15 17 19 17 14 11 11 8 5 2 3 5 3 1 1
9 13 15 19 18 14 10 10 10 11 10 8 6 6 6 9 8 6 8 10 11 12 12 13 14 15 15 12 12 15 16 16 14 12 12 10 8 6 5 2 2 1 3
11 15 17 18 17 15 13 13 11 9 9 9 8 8 7 8 7 5 6 8 10 12 10 10 10 11 12 11 11 13 13 14 15 16 15 13 10 7 4 2 0 2 1
11 17 19 18 17 16 18 12 6 8 9 9 9 7 6 6 6 5 5 7 9 8 9 9 7 7 8 8 8 9 10 8 8 8 9 10 11 11 9 6 4 6 5
10 14 13 12 18 18 17 11 11 14 11 11 11 8 6 6 8 6 5 5 7 7 7 7 9 9 9 9 7 6 5 4 5 5 6 6 7 7 7 8 9 6 6
12 9 9 8 9 15 18 16 16 20 17 15 13 10 7 5 9 9 7 5 5 7 9 11 11 10 10 10 11 7 3 2 2 2 3 5 5 5 5 5 5 4 4
9 7 5 5 8 12 17 21 25 26 23 20 16 12 9 6 7 9 8 6 6 8 10 11 11 11 11 11 12 12 11 8 6 5 5 5 5 5 4 4 4 5 5
7 6 4 5 5 9 18 23 26 26 24 22 18 14 11 10 9 10 10 9 10 10 10 10 8 8 8 9 8 8 7 7 7 6 6 6 6 6 5 5 6 7 7
9 7 6 6 7 12 16 17 22 23 23 23 18 15 14 11 10 10 11 11 11 9 11 8 5 4 3 3 4 4 4 4 5 6 6 6 6 6 6 7 7 7 7
9 8 9 11 12 13 16 16 14 15 14 12 11 11 12 11 11 10 10 10 9 10 6 5 4 4 5 5 4 4 4 4 6 7 6 5 6 7 8 7 7 6 7
9 11 12 12 13 16 17 21 23 16 13 13 13 12 11 14 13 11 10 9 9 8 5 5 6 5 4 3 3 3 4 3 4 6 7 6 6 7 8 6 7 7 7
7 10 10 11 11 11 11 12 13 14 14 11 11 11 12 11 10 9 9 8 6 6 4 6 6 5 4 2 1 0 1 1 3 5 6 7 6 8 8 6 6 7 8
8 9 10 11 10 11 11 12 11 11 12 12 10 10 10 10 9 8 8 6 7 8 6 5 4 4 3 3 3 2 3 3 3 5 5 6 6 7 7 6 7 8 9
8 11 11 12 13 11 11 11 11 12 11 11 10 9 10 9 8 7 7 8 8 7 6 4 4 3 4 3 3 3 3 4 5 6 6 7 7 7 8 9 10 11 12
9 11 12 11 12 14 14 13 12 11 11 9 9 9 11 8 8 9 10 10 9 7 6 6 5 5 5 6 5 5 5 5 7 8 9 10 10 11 11 12 13 14 15
11 11 11 11 12 12 11 11 10 9 9 9 8 9 11 8 8 10 11 10 8 7 7 7 7 7 6 6 6 6 7 7 6 7 8 9 10 11 12 14 15 17 18
13 12 12 10 10 10 9 8 9 8 8 8 8 9 12 12 12 12 11 9 8 6 7 7 7 8 7 8 7 5 3 3 4 5 7 9 10 12 13 15 17 18 18
13 12 12 12 12 11 10 11 10 10 9 9 9 11 13 14 14 12 13 13 11 9 7 5 5 5 5 4 3 3 3 5 5 5 8 9 12 13 14 15 16 16 17
13 12 13 13 12 11 11 11 10 9 7 8 9 8 8 9 12 12 11 10 10 6 6 6 5 5 5 4 3 4 5 8 10 10 7 7 8 9 9 11 11 13 13
14 14 14 13 11 11 12 12 11 9 9 8 7 7 7 8 8 11 13 11 9 8 8 6 6 5 4 3 5 7 8 8 7 5 2 3 4 5 6 7 8 9 9
Wind_Direction
150 132 141 140 129 120 102 95 86 74 65 70 71 66 59 47 54 69 69 71 67 65 61 54 44 51 116 175 190 159 169 137 132 112 130 135 116 125 112 107 98 87 72
146 150 147 141 140 129 115 100 88 81 72 72 75 77 75 69 67 67 69 72 70 65 69 69 58 60 66 59 54 24 179 139 136 130 134 115 116 119 119 112 100 90 81
134 153 154 140 141 130 113 107 99 93 85 80 80 80 79 77 74 72 72 70 69 67 65 65 63 62 58 56 58 60 74 128 132 159 128 135 122 128 116 101 93 91 91
159 155 154 147 135 131 127 115 105 100 94 84 80 80 76 76 77 75 75 77 73 70 68 65 58 53 49 51 57 66 69 83 102 123 122 124 125 130 114 105 93 94 86
150 165 154 154 144 131 116 115 112 106 99 97 89 86 78 70 70 73 71 76 80 76 71 68 64 63 64 63 64 60 68 82 90 100 101 119 126 138 147 140 118 111 81
157 165 162 156 147 145 139 133 125 114 103 88 89 93 86 79 71 75 78 75 74 73 72 67 64 62 59 62 65 70 76 75 84 93 99 91 115 123 137 142 139 145 122
163 164 170 170 158 162 157 152 149 123 115 109 97 95 99 90 83 80 78 81 80 75 71 68 65 59 60 64 67 71 70 71 76 83 84 71 71 73 139 146 139 117 159
179 172 181 182 167 156 168 173 162 128 130 139 133 131 117 106 95 90 88 91 86 79 75 72 73 68 65 67 72 74 71 72 67 71 74 69 71 78 95 114 192 270 122
175 182 201 191 176 167 184 189 166 138 142 158 153 150 145 135 118 108 110 102 94 85 82 83 75 71 65 67 80 86 84 77 72 77 78 73 68 66 77 74 336 215 274
183 201 199 192 188 177 183 193 210 182 159 162 162 154 165 167 154 137 119 112 106 96 87 81 85 79 69 72 89 92 94 88 84 81 68 60 56 50 45 41 337 285 282
166 181 177 181 190 194 197 209 228 181 164 161 165 166 173 184 191 171 142 125 125 109 99 93 89 83 77 71 86 86 96 99 83 80 64 50 46 43 42 36 35 15 331
144 146 168 194 213 220 219 207 208 190 177 169 165 165 170 161 180 181 170 153 132 125 122 117 103 99 84 76 73 81 111 84 85 80 54 31 20 19 15 8 1 10 15
152 149 167 196 233 226 223 194 192 185 178 172 171 171 159 144 156 185 180 167 141 132 128 122 108 100 90 80 77 78 76 77 72 56 29 17 352 326 339 343 349 344 321
164 166 188 189 212 220 200 196 187 180 177 175 177 176 162 149 139 147 165 171 148 143 135 139 126 121 104 90 80 70 70 67 58 36 17 7 3 359 350 346 333 335 322
148 146 136 137 161 164 170 175 183 185 187 182 184 180 168 160 161 160 159 158 159 152 148 149 147 141 120 95 81 70 64 56 31 12 1 359 4 1 359 354 346 332 321
134 131 140 140 144 146 148 141 155 161 168 170 171 175 163 156 152 153 153 159 161 157 160 162 153 133 109 94 86 79 74 49 31 14 0 351 351 352 348 343 342 337 327
152 143 139 137 139 143 142 136 125 125 139 143 153 156 158 151 152 152 155 163 169 170 182 170 159 153 138 117 88 66 53 35 9 11 10 359 343 344 334 329 340 334 331
154 154 146 147 147 147 148 143 140 138 136 132 141 148 152 155 162 165 169 169 181 193 190 181 189 190 193 185 171 344 328 321 340 349 347 350 336 323 332 320 316 320 321
164 168 156 143 145 146 142 138 137 138 142 146 146 148 157 161 167 172 178 189 188 184 190 202 212 215 221 218 223 255 272 287 304 313 318 317 324 315 307 304 301 297 299
173 168 152 145 143 141 137 139 144 142 142 143 148 151 163 162 175 182 183 185 187 195 197 199 202 201 206 215 228 244 264 268 268 281 289 293 292 293 295 292 294 298 303
162 155 148 139 140 141 144 145 140 136 137 145 152 169 174 168 178 182 182 191 195 204 215 211 214 213 211 218 228 236 242 261 274 279 284 286 283 282 284 285 286 288 289
162 160 159 156 153 154 152 148 148 155 162 166 170 178 183 183 187 192 199 204 209 221 234 238 237 233 232 232 235 245 253 265 260 277 288 290 289 288 289 289 289 289 288
177 178 176 174 172 170 172 184 191 196 203 206 205 201 203 208 210 206 208 209 216 232 251 249 226 222 231 243 246 244 245 271 289 296 299 299 298 297 297 295 294 292 289
196 198 198 199 198 200 209 213 219 225 224 222 221 224 223 219 217 212 211 223 228 235 239 225 208 200 215 201 217 239 263 279 300 306 303 300 299 298 299 296 294 294 291
213 218 211 208 207 208 218 221 223 222 223 228 230 230 226 216 213 207 201 204 213 188 184 173 166 175 186 194 214 259 282 299 311 307 305 299 298 303 303 302 302 301 298
216 211 209 204 207 221 223 220 221 220 225 229 240 239 223 196 196 202 206 203 187 171 169 167 176 187 202 228 257 283 303 314 320 321 337 320 321 319 322 315 316 314 315